TimeMDT,TemperatureF,Dew PointF,Humidity,Sea Level PressureIn,VisibilityMPH,Wind Direction,Wind SpeedMPH,Gust SpeedMPH,PrecipitationIn,Events,Conditions,WindDirDegrees,DateUTC
12:53 AM,64.0,28.9,27,29.65,10.0,SW,9.2,-,N/A,,Clear,220,2013-10-03 06:53:00
1:53 AM,63.0,28.9,28,29.65,10.0,SSW,12.7,-,N/A,,Clear,200,2013-10-03 07:53:00
2:53 AM,63.0,28.9,28,29.64,10.0,SSW,9.2,-,N/A,,Clear,210,2013-10-03 08:53:00
3:53 AM,62.1,30.0,30,29.63,10.0,SSW,11.5,-,N/A,,Clear,200,2013-10-03 09:53:00
4:53 AM,59.0,30.0,33,29.63,10.0,SSW,10.4,-,N/A,,Clear,210,2013-10-03 10:53:00
5:53 AM,60.1,30.0,32,29.63,10.0,SSW,11.5,-,N/A,,Clear,210,2013-10-03 11:53:00
6:53 AM,60.1,30.0,32,29.63,10.0,SW,10.4,-,N/A,,Clear,220,2013-10-03 12:53:00
7:53 AM,62.1,30.0,30,29.64,10.0,SSW,12.7,-,N/A,,Clear,200,2013-10-03 13:53:00
8:53 AM,68.0,30.9,25,29.62,10.0,South,19.6,25.3,N/A,,Clear,190,2013-10-03 14:53:00
9:53 AM,70.0,32.0,25,29.62,10.0,South,18.4,29.9,N/A,,Clear,190,2013-10-03 15:53:00
10:53 AM,72.0,33.1,24,29.60,10.0,South,19.6,28.8,N/A,,Mostly Cloudy,190,2013-10-03 16:53:00
11:53 AM,73.0,33.1,23,29.59,10.0,SSW,23.0,35.7,N/A,,Scattered Clouds,210,2013-10-03 17:53:00
12:53 PM,73.0,33.1,23,29.56,10.0,SSW,21.9,29.9,N/A,,Mostly Cloudy,200,2013-10-03 18:53:00
1:53 PM,75.9,30.9,19,29.49,10.0,SSW,25.3,36.8,N/A,,Clear,200,2013-10-03 19:53:00
2:53 PM,77.0,28.9,17,29.48,10.0,SSW,24.2,39.1,N/A,,Mostly Cloudy,210,2013-10-03 20:53:00
3:27 PM,62.6,41.0,45,29.67,10.0,NW,20.7,26.5,N/A,,Overcast,310,2013-10-03 21:27:00
3:53 PM,62.1,42.1,48,29.55,10.0,NW,25.3,31.1,0.00,Rain,Light Rain,310,2013-10-03 21:53:00
4:53 PM,54.0,43.0,66,29.61,10.0,WNW,27.6,34.5,0.00,Rain,Light Rain,300,2013-10-03 22:53:00
5:53 PM,52.0,35.1,53,29.67,10.0,WNW,34.5,42.6,0.00,Rain,Light Rain,300,2013-10-03 23:53:00
6:53 PM,48.9,36.0,61,29.77,10.0,NW,25.3,35.7,0.00,,Overcast,320,2013-10-04 00:53:00
7:53 PM,46.0,34.0,63,29.87,10.0,NNW,19.6,-,0.00,Rain,Light Rain,330,2013-10-04 01:53:00
8:40 PM,42.8,35.6,76,29.99,10.0,NNW,9.2,19.6,0.00,Rain,Light Rain,340,2013-10-04 02:40:00
8:53 PM,42.1,36.0,79,29.93,10.0,North,9.2,18.4,0.01,Rain,Light Rain,360,2013-10-04 02:53:00
9:11 PM,42.8,35.6,76,30.01,10.0,NE,8.1,-,0.01,Rain,Light Rain,40,2013-10-04 03:11:00
10:53 PM,41.0,37.0,86,29.94,10.0,SE,11.5,-,0.01,,Overcast,130,2013-10-04 04:53:00
11:53 PM,39.9,36.0,86,29.95,10.0,ESE,8.1,-,N/A,,Clear,120,2013-10-04 05:53:00